Dewpoint
11 13 14 19 21 23 23 24 16 15 18 23 25 25 25 26 28 36 37 37 37 37 37 37 37 36 36 34 32 31 30 28 26 24 21 19 17 15 15 14 14 15 16 16
11 14 16 15 16 23 26 26 27 24 23 20 20 20 23 20 19 24 35 37 38 37 37 36 34 33 32 31 30 29 28 26 23 20 19 17 16 14 14 15 15 16 16 16
11 17 20 8 12 13 13 12 16 12 15 17 16 17 20 21 19 18 20 26 37 38 37 35 33 31 30 29 28 27 25 22 21 19 18 16 15 14 14 14 16 16 16 17
12 18 6 15 15 16 12 10 11 11 12 13 15 16 20 23 23 17 18 22 27 38 36 34 31 30 28 27 27 25 22 21 20 19 17 16 14 14 15 15 15 16 17 17
14 13 15 12 11 10 10 9 11 9 10 11 14 20 22 18 22 17 16 22 27 35 35 31 29 28 27 26 24 22 21 19 19 17 16 15 14 15 15 16 16 17 17 18
15 10 6 10 11 16 19 10 9 10 9 10 13 12 15 18 22 16 15 21 26 33 31 29 27 26 25 23 22 21 19 19 18 17 15 15 15 15 16 17 17 18 17 18
10 10 8 8 14 14 3 5 9 10 10 11 9 13 17 20 23 17 14 18 24 26 27 26 25 25 23 22 22 20 19 18 17 16 16 16 16 18 19 19 18 17 17 19
7 7 5 10 7 2 6 9 10 10 11 11 13 14 17 20 21 20 19 16 19 21 22 22 24 23 22 21 19 18 18 17 18 17 17 18 19 21 20 19 19 19 20 20
6 7 11 9 9 11 9 7 8 10 10 12 12 14 16 21 20 19 19 20 16 19 20 21 22 22 18 18 19 19 19 18 18 19 20 21 21 21 20 21 20 20 19 19
3 4 2 11 5 4 6 7 8 9 11 12 12 15 19 19 18 18 19 19 17 16 16 16 17 18 18 18 20 20 20 20 20 21 22 22 22 22 22 21 20 20 19 19
1 2 2 12 2 5 6 7 8 9 10 12 15 17 19 18 17 18 18 19 21 18 16 16 17 17 17 19 20 21 21 21 22 23 22 22 23 22 21 21 21 21 20 21
-1 2 5 3 5 6 7 6 8 9 10 12 15 17 18 18 18 18 18 19 20 20 20 21 21 21 20 21 22 22 22 22 22 22 22 22 22 22 22 22 22 22 23 22
4 7 7 7 6 5 6 7 9 11 11 12 14 17 18 18 19 18 18 19 19 20 21 21 22 22 24 24 25 23 22 22 22 21 21 21 22 23 23 23 23 23 22 22
6 6 3 4 5 6 7 8 8 8 10 12 14 15 16 16 16 16 17 19 20 20 20 21 21 21 23 24 23 22 23 22 21 21 21 21 21 20 20 19 18 20 22 21
5 6 5 4 4 4 6 7 7 7 9 10 12 14 15 14 15 16 18 19 20 19 20 20 20 21 23 23 23 21 20 20 20 20 20 19 18 17 17 17 17 18 19 18
6 3 3 3 4 5 5 6 6 7 8 10 11 12 14 15 15 16 17 18 16 17 19 19 19 21 22 21 21 20 21 21 20 19 18 17 16 16 16 16 16 17 18 17
4 3 3 3 4 4 5 7 8 9 9 10 11 13 13 14 14 15 16 17 18 18 19 19 19 21 22 22 21 21 21 20 19 18 17 16 16 15 15 15 14 15 17 18
8 7 7 6 5 5 5 7 8 10 10 11 12 13 13 13 13 14 16 17 18 18 19 20 21 21 21 22 21 21 19 18 18 17 17 16 15 15 14 13 13 12 13 15
8 7 7 7 7 7 6 7 8 11 12 12 12 12 13 13 14 14 16 15 15 16 18 22 22 21 21 22 19 19 18 17 16 16 17 17 14 13 13 12 11 11 11 10
7 8 8 8 8 8 7 8 9 10 11 12 13 12 12 13 15 15 15 15 16 17 19 20 20 20 21 22 19 17 17 16 15 15 14 13 13 12 12 11 10 9 8 7
7 7 7 7 8 8 8 8 8 8 10 11 11 12 13 14 15 15 14 13 17 19 19 19 18 17 19 18 16 16 15 15 15 14 13 12 12 10 9 8 8 7 6 6
8 7 7 7 8 8 9 9 8 8 8 9 10 12 12 12 14 14 16 15 18 18 17 18 19 19 19 16 14 14 13 12 12 11 10 9 8 7 6 5 5 5 4 5
8 8 8 7 7 8 8 9 8 8 8 8 8 9 11 12 12 12 12 17 18 19 18 19 19 18 16 12 12 11 11 9 8 7 6 5 5 3 3 3 3 3 4 5
8 8 7 8 8 7 7 8 9 9 9 9 9 9 9 10 12 13 16 20 20 18 17 18 18 16 12 10 10 8 7 6 4 3 4 2 -2 -2 -0 1 2 2 3 3
8 8 7 6 6 7 8 9 9 9 9 9 9 9 10 11 10 11 12 13 16 13 12 17 15 12 8 7 6 5 4 3 2 -1 -3 -4 -4 -4 -3 -2 -1 2 4 1
7 7 8 8 8 8 8 10 8 9 8 8 8 9 10 11 11 9 10 11 11 10 8 8 7 7 6 5 4 2 3 6 3 -1 -3 -4 -5 -4 -4 -5 -5 -4 -3 -3
7 8 7 6 8 8 9 10 7 7 9 8 7 9 9 10 10 9 9 8 7 7 7 7 5 5 4 4 4 3 3 2 2 -2 -3 -3 -3 -3 -2 -2 -3 -5 -6 -5
Wind_Speed
20 21 17 14 17 21 15 24 26 24 14 15 20 21 20 18 21 10 6 1 5 7 10 14 16 17 19 21 24 27 28 28 27 25 25 27 27 26 23 21 18 17 16 13
12 11 11 21 38 16 13 15 19 5 6 23 20 23 22 20 19 19 11 6 5 8 11 13 16 17 18 21 23 25 26 25 26 27 28 28 27 26 24 21 19 17 15 14
7 2 12 17 24 26 19 32 13 13 16 28 27 25 24 25 19 19 18 18 8 11 13 13 15 16 17 18 19 22 24 26 28 29 29 27 27 26 24 22 20 18 15 13
10 11 9 3 27 9 18 23 27 21 24 26 27 28 10 19 26 27 25 24 20 9 13 14 13 16 18 18 20 21 24 26 26 28 27 26 25 24 21 20 19 17 15 12
4 10 8 19 23 11 8 7 28 26 29 32 37 12 19 30 29 25 24 24 22 17 15 16 18 18 21 20 19 20 22 24 25 26 28 26 24 22 19 19 17 14 13 12
7 6 5 8 33 23 8 5 32 31 31 34 33 16 11 34 33 27 25 22 17 7 13 16 17 20 21 21 21 21 22 23 24 25 27 26 25 23 18 17 16 13 12 9
15 6 3 20 30 20 10 12 36 30 28 26 21 16 30 31 24 22 22 20 13 5 9 12 17 20 21 21 20 19 21 23 23 22 24 24 23 21 20 17 15 13 12 8
10 8 6 28 10 10 8 19 22 24 24 27 26 28 26 28 21 21 22 18 10 4 9 10 15 18 21 20 21 23 24 24 24 23 22 21 24 20 18 17 16 14 12 8
8 4 5 10 14 9 13 20 22 27 29 26 27 26 27 22 18 18 17 14 7 4 11 10 13 17 21 20 24 25 26 25 24 23 21 21 22 20 17 15 14 12 10 8
8 9 31 1 13 24 25 25 26 26 29 27 27 27 23 18 15 15 15 13 9 5 11 14 16 17 20 21 23 25 27 25 24 24 23 19 16 15 16 14 12 11 10 8
6 12 22 5 29 26 26 25 26 25 25 25 24 22 18 17 15 13 13 10 6 6 10 13 17 19 19 21 23 25 25 24 23 21 19 18 15 14 13 10 11 12 10 9
4 14 7 22 24 28 25 27 25 26 25 23 21 20 17 14 11 11 10 7 5 8 12 12 16 18 19 21 24 26 26 22 20 19 17 17 18 17 17 16 16 13 11 8
6 15 16 21 20 18 24 26 24 23 21 21 19 16 13 10 10 9 8 6 5 8 11 14 15 17 16 19 23 22 23 21 20 19 18 19 18 17 19 16 15 14 11 8
5 9 6 11 15 24 22 23 22 19 17 16 15 14 11 10 9 8 8 7 7 10 12 14 17 16 15 17 21 22 21 23 18 17 16 16 15 15 14 15 14 8 9 9
15 7 8 14 16 16 16 18 21 20 20 19 15 13 12 10 10 9 9 9 10 12 12 13 17 15 15 17 20 21 20 17 16 15 14 15 14 13 13 12 12 10 7 8
22 16 10 9 12 15 16 18 18 21 19 17 16 14 10 9 10 11 11 11 13 13 12 15 15 14 16 18 20 19 19 24 20 17 16 16 13 14 13 13 12 10 8 8
19 27 28 27 23 21 18 16 15 16 18 18 15 13 12 11 12 14 14 14 16 16 14 14 14 14 16 17 18 17 17 18 21 17 15 14 14 13 12 11 10 8 7 10
10 12 14 14 17 20 21 20 18 17 15 15 14 14 15 15 13 13 13 13 16 17 14 12 12 14 14 15 15 15 15 16 15 16 15 14 13 13 12 11 9 8 6 8
12 13 16 15 15 15 15 18 18 16 15 15 13 12 13 14 14 13 15 18 16 15 13 11 15 14 14 18 17 15 15 16 15 14 15 17 13 11 11 10 10 8 6 6
12 13 13 14 14 14 16 16 16 15 16 14 13 14 14 13 13 15 16 18 14 10 13 14 14 13 11 16 17 15 15 15 14 13 13 13 13 13 12 11 9 8 7 7
12 13 13 14 14 13 14 14 14 15 15 14 14 14 13 13 13 10 11 13 12 14 15 16 13 12 10 12 13 14 14 14 13 11 10 11 13 12 11 9 8 7 6 6
10 12 12 13 12 13 13 13 13 13 14 14 14 14 13 13 12 12 12 9 7 13 11 10 10 13 13 14 11 14 14 13 13 12 11 10 10 10 9 7 6 5 4 5
8 9 9 11 11 11 11 12 13 12 13 13 13 13 11 9 10 9 9 8 7 8 8 10 16 19 18 12 11 11 13 13 12 12 11 10 10 9 7 5 4 4 5 7
9 9 9 10 9 11 14 13 11 10 10 10 11 12 11 10 12 13 13 15 16 14 12 10 14 17 17 14 13 11 11 11 12 11 9 9 8 6 5 4 4 3 5 7
10 8 8 11 10 10 11 10 9 9 8 9 10 10 11 11 9 10 12 13 17 16 15 14 15 14 10 9 12 13 11 9 8 9 8 8 7 5 3 3 3 4 6 7
11 9 6 6 8 8 9 7 8 8 7 7 8 8 8 8 9 9 9 10 10 11 10 8 8 8 8 7 7 9 10 9 8 7 7 6 4 4 3 3 5 6 8 9
9 11 5 7 7 9 9 8 7 9 7 6 5 7 7 7 8 8 7 7 7 7 7 7 6 6 7 7 6 5 6 7 7 6 5 4 2 1 2 4 6 8 10 11
Wind_Direction
289 281 273 277 315 308 278 246 229 238 224 9 357 347 345 352 345 337 355 133 155 154 149 144 145 146 148 148 150 152 152 153 155 149 145 143 143 144 143 145 146 144 147 150
296 289 262 46 19 356 307 278 260 268 115 7 343 343 354 6 357 9 335 292 179 170 163 158 154 152 149 150 153 153 153 151 145 144 144 146 144 143 141 140 139 142 147 150
281 304 147 41 22 52 43 34 14 32 346 342 347 339 336 347 2 349 340 333 246 184 179 167 160 153 155 153 150 151 148 147 148 148 147 147 143 141 142 142 141 146 148 155
282 314 61 155 24 15 62 43 28 8 349 343 329 310 284 16 358 345 337 324 310 224 176 159 152 147 140 146 151 149 149 149 150 148 143 140 138 138 137 140 145 146 153 157
299 48 125 33 350 322 340 30 22 356 340 341 338 338 183 2 348 335 326 313 299 257 170 152 152 147 142 143 143 147 150 148 146 143 138 138 136 135 135 136 139 143 151 150
322 64 67 354 329 322 184 212 6 349 341 339 346 5 309 327 327 331 327 326 331 113 142 149 150 148 144 145 148 152 151 147 142 142 139 136 134 133 133 134 134 138 136 138
0 66 76 354 338 332 54 314 329 332 328 325 328 304 298 310 319 327 325 324 330 65 134 149 147 147 145 145 149 143 137 132 131 131 128 128 127 129 132 131 129 129 130 135
348 21 0 7 14 60 289 302 308 317 316 313 307 307 310 317 327 330 326 326 330 89 109 131 142 142 141 140 134 131 130 126 123 123 125 127 126 128 125 127 128 131 134 139
19 335 9 20 97 15 338 323 323 321 317 313 308 310 316 323 328 329 331 324 327 104 108 115 132 144 130 132 132 130 127 125 123 121 123 124 126 125 122 123 131 140 145 144
336 1 339 92 3 355 343 331 323 318 313 312 310 314 320 327 328 335 332 338 355 79 103 99 99 108 121 130 131 128 124 123 123 123 120 121 120 122 128 134 140 142 138 136
286 13 338 214 337 330 328 324 321 317 311 311 315 316 326 329 332 333 327 341 12 62 88 97 108 113 121 126 127 122 120 120 121 119 120 119 116 125 127 131 137 137 136 134
285 332 302 293 308 318 324 324 321 319 323 320 323 320 332 327 324 322 329 347 25 85 94 93 104 111 118 122 122 124 121 118 120 122 122 122 125 124 123 130 131 133 133 134
280 306 291 287 299 317 320 318 323 324 317 319 324 328 328 332 336 347 358 8 58 84 95 101 104 110 118 125 127 123 122 123 126 122 128 132 134 137 135 126 114 116 104 93
259 303 307 320 314 316 317 318 321 320 327 330 331 337 344 344 356 9 24 24 45 78 90 100 102 104 112 115 114 115 118 118 118 124 128 129 121 121 123 125 121 94 84 80
339 324 278 288 300 318 325 326 337 343 340 342 345 351 1 10 21 24 36 52 57 70 73 91 96 94 103 112 112 111 112 114 114 114 114 113 112 115 119 121 119 116 106 77
324 327 336 341 333 342 343 342 345 340 340 342 348 1 9 27 41 44 48 55 68 63 69 78 80 93 101 105 103 103 111 119 115 111 112 111 113 116 117 115 112 110 103 81
345 346 346 348 347 344 343 338 340 341 338 345 348 358 26 40 51 52 54 57 66 66 66 79 87 90 94 102 109 112 112 114 115 108 112 114 116 116 116 116 115 106 78 85
332 323 328 332 334 338 344 347 346 349 356 352 358 13 29 37 40 47 54 66 71 70 68 75 85 88 90 94 101 103 106 110 112 113 113 110 107 108 110 113 114 106 84 66
348 344 343 346 350 345 349 352 349 348 0 7 14 24 38 46 50 53 60 60 57 62 51 81 95 91 98 106 97 98 103 107 108 111 115 115 109 110 110 110 107 98 86 67
352 351 350 352 355 2 358 359 352 360 4 15 23 28 37 43 53 63 64 66 63 66 62 66 65 71 90 106 105 102 102 105 106 105 113 116 117 110 108 105 98 85 70 50
352 350 356 359 358 0 4 1 5 9 6 16 29 30 36 39 42 42 63 73 62 77 78 73 69 66 70 94 93 94 99 103 105 107 121 118 116 114 112 107 100 85 63 37
348 352 354 356 2 3 4 4 10 13 18 23 23 30 37 36 37 47 40 47 71 91 92 95 94 92 93 88 88 100 103 106 108 113 112 112 114 112 108 110 106 92 67 28
354 356 357 0 0 358 1 12 16 16 18 21 22 20 25 35 32 42 54 39 56 84 72 95 102 101 94 81 85 93 102 109 113 115 117 116 115 115 116 102 85 56 31 14
348 359 2 357 2 11 11 2 10 18 23 21 23 23 25 28 38 21 24 54 76 77 82 81 93 98 102 103 100 98 101 109 116 116 113 108 108 110 109 92 70 19 4 353
345 344 3 8 8 360 354 1 7 14 22 29 25 23 28 28 49 24 41 40 61 62 48 62 76 77 69 86 112 119 118 121 123 121 118 118 113 99 71 45 20 346 329 327
343 328 353 347 353 349 344 0 14 3 26 26 31 21 22 26 36 44 44 59 60 67 68 65 73 78 85 93 103 113 120 121 118 117 115 108 96 77 56 360 330 319 315 312
343 351 2 356 352 354 346 18 17 7 8 23 34 20 20 23 27 43 53 56 64 71 72 64 71 92 99 104 104 101 107 112 117 125 124 121 116 56 2 333 318 308 307 311